Time,TemperatureF,DewpointF,PressureIn,WindDirection,WindDirectionDegrees,WindSpeedMPH,WindSpeedGustMPH,Humidity,HourlyPrecipIn,Conditions,Clouds,dailyrainin,SoftwareType,DateUTC
2013-02-15 00:00:00,59.4,54.6,29.94,North,0,0.0,0.0,84,0.02,,---,0.01,VWS V13.01,2013-02-15 05:00:00,
2013-02-15 00:30:00,59.6,54.8,29.96,North,0,0.0,0.0,84,0.01,,---,0.01,VWS V13.01,2013-02-15 05:30:00,
2013-02-15 01:00:00,58.7,54.2,29.98,North,0,0.0,4.0,85,0.01,,---,0.01,VWS V13.01,2013-02-15 06:00:00,
2013-02-15 01:30:00,58.7,53.9,29.99,North,0,0.0,0.0,84,0.00,,---,0.01,VWS V13.01,2013-02-15 06:30:00,
2013-02-15 02:00:00,58.7,53.9,29.99,North,0,0.0,0.0,84,0.00,,---,0.01,VWS V13.01,2013-02-15 07:00:00,
2013-02-15 02:30:00,58.4,53.6,29.98,NW,315,0.0,1.0,84,0.01,,---,0.02,VWS V13.01,2013-02-15 07:30:00,
2013-02-15 03:00:00,58.0,53.5,29.96,NW,315,0.0,0.0,85,0.01,,---,0.02,VWS V13.01,2013-02-15 08:00:00,
2013-02-15 03:30:00,57.7,53.2,29.96,NW,315,0.0,0.0,85,0.01,,---,0.02,VWS V13.01,2013-02-15 08:30:00,
2013-02-15 04:00:00,57.7,53.2,29.96,NW,315,0.0,0.0,85,0.00,,---,0.02,VWS V13.01,2013-02-15 09:00:00,
2013-02-15 04:30:00,57.7,53.2,29.97,NW,315,0.0,0.0,85,0.00,,---,0.02,VWS V13.01,2013-02-15 09:30:00,
2013-02-15 05:00:00,57.4,52.6,29.96,NW,315,0.0,0.0,84,0.00,,---,0.02,VWS V13.01,2013-02-15 10:00:00,
2013-02-15 05:30:00,56.8,52.0,29.97,ENE,68,0.0,4.0,84,0.00,,---,0.02,VWS V13.01,2013-02-15 10:30:00,
2013-02-15 06:00:00,56.4,52.0,29.97,ENE,68,0.0,0.0,85,0.00,,---,0.02,VWS V13.01,2013-02-15 11:00:00,
2013-02-15 06:30:00,56.5,51.7,29.99,NE,36,0.0,0.0,84,0.00,,---,0.01,VWS V13.01,2013-02-15 11:30:00,
2013-02-15 06:35:00,56.5,51.7,29.99,NE,36,0.0,0.0,84,0.00,,---,0.01,VWS V13.01,2013-02-15 11:35:00,
2013-02-15 06:40:00,56.5,51.7,30.00,NE,36,0.0,0.0,84,0.00,,---,0.01,VWS V13.01,2013-02-15 11:40:00,
2013-02-15 06:45:00,56.6,51.8,30.00,NE,36,0.0,0.0,84,0.00,,---,0.01,VWS V13.01,2013-02-15 11:45:00,
2013-02-15 06:50:00,56.5,51.7,30.00,NE,36,0.0,0.0,84,0.00,,---,0.01,VWS V13.01,2013-02-15 11:50:00,
2013-02-15 06:56:00,56.4,52.0,30.00,NE,36,0.0,0.0,85,0.00,,---,0.01,VWS V13.01,2013-02-15 11:56:00,
2013-02-15 07:01:00,56.4,52.0,30.00,NNE,19,0.0,0.0,85,0.00,,---,0.01,VWS V13.01,2013-02-15 12:01:00,
2013-02-15 07:06:00,56.4,52.0,30.00,NNE,19,0.0,0.0,85,0.00,,---,0.01,VWS V13.01,2013-02-15 12:06:00,
2013-02-15 07:11:00,56.4,52.0,30.00,NNE,19,0.0,0.0,85,0.00,,---,0.01,VWS V13.01,2013-02-15 12:11:00,
2013-02-15 07:16:00,56.4,52.0,29.99,NNE,19,0.0,0.0,85,0.00,,---,0.01,VWS V13.01,2013-02-15 12:16:00,
2013-02-15 07:21:00,56.4,52.0,30.00,NNE,19,0.0,0.0,85,0.00,,---,0.01,VWS V13.01,2013-02-15 12:21:00,
2013-02-15 07:26:00,56.4,52.0,30.00,NNE,19,0.0,0.0,85,0.00,,---,0.01,VWS V13.01,2013-02-15 12:26:00,
2013-02-15 07:31:00,56.4,52.0,29.99,NNE,19,0.0,0.0,85,0.00,,---,0.01,VWS V13.01,2013-02-15 12:31:00,
2013-02-15 07:36:00,56.3,51.9,30.01,North,10,0.0,0.0,85,0.00,,---,0.01,VWS V13.01,2013-02-15 12:36:00,
2013-02-15 07:41:00,56.2,51.4,30.01,NNE,13,0.0,0.0,84,0.00,,---,0.01,VWS V13.01,2013-02-15 12:41:00,
2013-02-15 07:46:00,56.2,51.4,30.02,NNE,12,0.0,0.0,84,0.00,,---,0.01,VWS V13.01,2013-02-15 12:46:00,
2013-02-15 07:52:00,56.0,51.2,30.02,NNE,19,0.0,0.0,84,0.00,,---,0.01,VWS V13.01,2013-02-15 12:52:00,
2013-02-15 07:57:00,55.9,51.1,30.01,North,10,0.0,0.0,84,0.00,,---,0.01,VWS V13.01,2013-02-15 12:57:00,
2013-02-15 08:02:00,56.0,51.2,30.02,NNE,13,0.0,0.0,84,0.00,,---,0.01,VWS V13.01,2013-02-15 13:02:00,
2013-02-15 08:07:00,56.0,51.2,30.02,North,5,0.0,0.0,84,0.00,,---,0.01,VWS V13.01,2013-02-15 13:07:00,
2013-02-15 08:12:00,55.9,51.1,30.03,North,11,0.0,0.0,84,0.00,,---,0.01,VWS V13.01,2013-02-15 13:12:00,
2013-02-15 08:17:00,55.8,51.0,30.02,North,355,0.0,0.0,84,0.00,,---,0.01,VWS V13.01,2013-02-15 13:17:00,
2013-02-15 08:22:00,55.7,51.3,30.02,North,9,0.0,6.0,85,0.00,,---,0.01,VWS V13.01,2013-02-15 13:22:00,
2013-02-15 08:27:00,55.7,51.3,30.03,North,5,0.0,6.0,85,0.00,,---,0.01,VWS V13.01,2013-02-15 13:27:00,
2013-02-15 08:32:00,55.7,51.3,30.03,NNE,17,0.0,7.0,85,0.00,,---,0.01,VWS V13.01,2013-02-15 13:32:00,
2013-02-15 08:37:00,55.7,51.3,30.03,North,9,0.0,7.0,85,0.00,,---,0.01,VWS V13.01,2013-02-15 13:37:00,
2013-02-15 08:42:00,55.7,51.3,30.04,North,9,0.0,7.0,85,0.00,,---,0.01,VWS V13.01,2013-02-15 13:42:00,
2013-02-15 08:48:00,55.9,51.1,30.04,North,9,0.0,7.0,84,0.00,,---,0.01,VWS V13.01,2013-02-15 13:48:00,
2013-02-15 08:53:00,56.2,51.8,30.04,North,9,0.0,7.0,85,0.00,,---,0.01,VWS V13.01,2013-02-15 13:53:00,
2013-02-15 08:58:00,56.2,51.8,30.04,East,88,0.0,7.0,85,0.00,,---,0.01,VWS V13.01,2013-02-15 13:58:00,
2013-02-15 09:03:00,56.2,51.8,30.04,East,88,0.0,0.0,85,0.00,,---,0.01,VWS V13.01,2013-02-15 14:03:00,
2013-02-15 09:08:00,56.2,51.8,30.04,NE,49,0.0,0.0,85,0.00,,---,0.01,VWS V13.01,2013-02-15 14:08:00,
2013-02-15 09:13:00,56.2,51.8,30.04,NNE,13,0.0,0.0,85,0.00,,---,0.01,VWS V13.01,2013-02-15 14:13:00,
2013-02-15 09:18:00,56.4,51.6,30.04,NNE,13,0.0,0.0,84,0.00,,---,0.01,VWS V13.01,2013-02-15 14:18:00,
2013-02-15 09:23:00,56.5,51.7,30.03,NNE,28,0.0,0.0,84,0.00,,---,0.01,VWS V13.01,2013-02-15 14:23:00,
2013-02-15 09:28:00,56.7,51.9,30.03,NNW,335,0.0,0.0,84,0.00,,---,0.01,VWS V13.01,2013-02-15 14:28:00,
2013-02-15 09:33:00,56.7,51.9,30.04,NNE,23,0.0,1.0,84,0.00,,---,0.01,VWS V13.01,2013-02-15 14:33:00,
2013-02-15 09:38:00,56.7,51.9,30.05,NNE,13,0.0,5.0,84,0.00,,---,0.01,VWS V13.01,2013-02-15 14:38:00,
2013-02-15 09:43:00,56.8,52.0,30.04,NNE,22,0.0,5.0,84,0.00,,---,0.01,VWS V13.01,2013-02-15 14:43:00,
2013-02-15 09:48:00,56.5,52.0,30.04,NNE,21,0.0,5.0,85,0.00,,---,0.01,VWS V13.01,2013-02-15 14:48:00,
2013-02-15 09:53:00,56.7,51.9,30.04,North,11,0.0,6.0,84,0.00,,---,0.01,VWS V13.01,2013-02-15 14:53:00,
2013-02-15 09:58:00,56.7,51.9,30.04,NNE,30,0.0,6.0,84,0.00,,---,0.01,VWS V13.01,2013-02-15 14:58:00,
2013-02-15 10:03:00,56.8,52.0,30.05,NNE,32,0.0,0.0,84,0.00,,---,0.01,VWS V13.01,2013-02-15 15:03:00,
2013-02-15 10:08:00,56.9,52.1,30.05,NNE,32,0.0,0.0,84,0.00,,---,0.01,VWS V13.01,2013-02-15 15:08:00,
2013-02-15 10:13:00,56.9,52.4,30.05,NNE,26,0.0,0.0,85,0.00,,---,0.01,VWS V13.01,2013-02-15 15:13:00,
2013-02-15 10:18:00,56.9,52.4,30.05,NNE,26,0.0,0.0,85,0.00,,---,0.01,VWS V13.01,2013-02-15 15:18:00,
2013-02-15 10:24:00,57.1,52.6,30.04,NNE,30,0.0,0.0,85,0.00,,---,0.01,VWS V13.01,2013-02-15 15:24:00,
2013-02-15 10:29:00,57.2,52.7,30.04,ENE,62,0.0,0.0,85,0.00,,---,0.01,VWS V13.01,2013-02-15 15:29:00,
2013-02-15 10:34:00,57.4,52.6,30.05,ENE,63,0.0,0.0,84,0.00,,---,0.01,VWS V13.01,2013-02-15 15:34:00,
2013-02-15 10:39:00,57.6,52.8,30.05,ENE,62,0.0,0.0,84,0.00,,---,0.01,VWS V13.01,2013-02-15 15:39:00,
2013-02-15 10:44:00,57.6,52.8,30.05,ENE,63,0.0,0.0,84,0.00,,---,0.01,VWS V13.01,2013-02-15 15:44:00,
2013-02-15 10:49:00,57.5,52.7,30.05,ENE,63,0.0,0.0,84,0.00,,---,0.01,VWS V13.01,2013-02-15 15:49:00,
2013-02-15 10:54:00,57.6,52.8,30.05,ENE,62,0.0,0.0,84,0.00,,---,0.01,VWS V13.01,2013-02-15 15:54:00,
2013-02-15 10:59:00,57.8,53.3,30.04,ENE,62,0.0,0.0,85,0.00,,---,0.01,VWS V13.01,2013-02-15 15:59:00,
2013-02-15 11:04:00,58.1,53.3,30.05,ENE,61,0.0,0.0,84,0.00,,---,0.01,VWS V13.01,2013-02-15 16:04:00,
2013-02-15 11:09:00,58.3,53.5,30.05,NNE,19,0.0,0.0,84,0.00,,---,0.01,VWS V13.01,2013-02-15 16:09:00,
2013-02-15 11:14:00,58.2,53.4,30.05,North,5,0.0,0.0,84,0.00,,---,0.01,VWS V13.01,2013-02-15 16:14:00,
2013-02-15 11:19:00,58.4,53.6,30.05,North,5,0.0,0.0,84,0.00,,---,0.01,VWS V13.01,2013-02-15 16:19:00,
2013-02-15 11:24:00,58.3,53.5,30.05,North,5,0.0,0.0,84,0.00,,---,0.01,VWS V13.01,2013-02-15 16:24:00,
2013-02-15 11:29:00,58.3,53.5,30.04,North,5,0.0,0.0,84,0.00,,---,0.01,VWS V13.01,2013-02-15 16:29:00,
2013-02-15 11:34:00,58.5,53.7,30.03,NNE,14,0.0,0.0,84,0.00,,---,0.01,VWS V13.01,2013-02-15 16:34:00,
2013-02-15 11:39:00,58.5,53.7,30.03,NE,44,0.0,0.0,84,0.00,,---,0.01,VWS V13.01,2013-02-15 16:39:00,
2013-02-15 11:44:00,58.7,53.9,30.04,NE,38,0.0,0.0,84,0.00,,---,0.01,VWS V13.01,2013-02-15 16:44:00,
2013-02-15 11:49:00,59.1,54.3,30.03,NNE,16,0.0,0.0,84,0.00,,---,0.01,VWS V13.01,2013-02-15 16:49:00,
2013-02-15 11:54:00,59.5,54.7,30.04,North,9,0.0,0.0,84,0.00,,---,0.01,VWS V13.01,2013-02-15 16:54:00,
2013-02-15 12:00:00,60.0,54.8,30.04,NNE,19,0.0,0.0,83,0.00,,---,0.01,VWS V13.01,2013-02-15 17:00:00,
2013-02-15 12:05:00,60.1,54.6,30.04,NNE,20,0.0,0.0,82,0.00,,---,0.01,VWS V13.01,2013-02-15 17:05:00,
2013-02-15 12:10:00,60.1,54.6,30.04,NE,36,0.0,0.0,82,0.00,,---,0.01,VWS V13.01,2013-02-15 17:10:00,
2013-02-15 12:15:00,60.2,54.4,30.04,NE,36,0.0,0.0,81,0.00,,---,0.01,VWS V13.01,2013-02-15 17:15:00,
2013-02-15 12:20:00,60.3,54.8,30.03,NE,36,0.0,0.0,82,0.00,,---,0.01,VWS V13.01,2013-02-15 17:20:00,
2013-02-15 12:25:00,60.5,54.7,30.03,NE,35,0.0,0.0,81,0.00,,---,0.01,VWS V13.01,2013-02-15 17:25:00,
2013-02-15 12:30:00,60.9,55.0,30.03,NE,35,0.0,0.0,81,0.00,,---,0.01,VWS V13.01,2013-02-15 17:30:00,
2013-02-15 12:35:00,61.7,55.1,30.02,NNE,23,0.0,0.0,79,0.00,,---,0.01,VWS V13.01,2013-02-15 17:35:00,
2013-02-15 12:40:00,62.2,55.6,30.01,North,9,0.0,0.0,79,0.00,,---,0.01,VWS V13.01,2013-02-15 17:40:00,
2013-02-15 12:45:00,63.0,56.4,30.01,NE,34,2.0,2.0,79,0.00,,---,0.01,VWS V13.01,2013-02-15 17:45:00,
2013-02-15 12:50:00,63.7,56.0,30.01,North,5,0.0,2.0,76,0.00,,---,0.01,VWS V13.01,2013-02-15 17:50:00,
2013-02-15 12:55:00,63.9,55.5,30.01,NE,45,0.0,2.0,74,0.00,,---,0.01,VWS V13.01,2013-02-15 17:55:00,
2013-02-15 13:00:00,63.8,54.2,30.01,ESE,112,0.0,0.0,71,0.00,,---,0.01,VWS V13.01,2013-02-15 18:00:00,
2013-02-15 13:05:00,63.7,53.7,30.01,ESE,111,0.0,0.0,70,0.00,,---,0.01,VWS V13.01,2013-02-15 18:05:00,
2013-02-15 13:11:00,63.8,53.5,30.00,NE,34,0.0,0.0,69,0.00,,---,0.01,VWS V13.01,2013-02-15 18:11:00,
2013-02-15 13:16:00,64.3,53.5,30.00,NE,34,0.0,0.0,68,0.00,,---,0.01,VWS V13.01,2013-02-15 18:16:00,
2013-02-15 13:21:00,64.8,54.4,30.00,NE,41,0.0,0.0,69,0.00,,---,0.01,VWS V13.01,2013-02-15 18:21:00,
2013-02-15 13:26:00,65.8,54.1,29.99,NE,40,0.0,0.0,66,0.00,,---,0.01,VWS V13.01,2013-02-15 18:26:00,
2013-02-15 13:31:00,65.6,53.5,29.99,NE,39,0.0,0.0,65,0.00,,---,0.01,VWS V13.01,2013-02-15 18:31:00,
2013-02-15 13:36:00,66.0,55.2,29.98,NE,38,0.0,0.0,68,0.00,,---,0.01,VWS V13.01,2013-02-15 18:36:00,
2013-02-15 13:41:00,67.0,54.4,29.98,NE,46,0.0,0.0,64,0.00,,---,0.01,VWS V13.01,2013-02-15 18:41:00,
2013-02-15 13:46:00,67.4,54.4,29.98,NE,35,0.0,0.0,63,0.00,,---,0.01,VWS V13.01,2013-02-15 18:46:00,
2013-02-15 13:51:00,67.3,54.3,29.98,NNE,17,0.0,0.0,63,0.00,,---,0.01,VWS V13.01,2013-02-15 18:51:00,
2013-02-15 13:56:00,66.5,54.0,29.97,North,9,0.0,0.0,64,0.00,,---,0.01,VWS V13.01,2013-02-15 18:56:00,
2013-02-15 14:01:00,66.9,54.3,29.97,NE,50,0.0,0.0,64,0.00,,---,0.01,VWS V13.01,2013-02-15 19:01:00,
2013-02-15 14:06:00,66.7,54.2,29.97,ESE,121,0.0,0.0,64,0.00,,---,0.01,VWS V13.01,2013-02-15 19:06:00,
2013-02-15 14:11:00,66.9,54.8,29.97,ESE,103,0.0,0.0,65,0.00,,---,0.01,VWS V13.01,2013-02-15 19:11:00,
2013-02-15 14:16:00,67.4,55.2,29.96,ENE,64,0.0,0.0,65,0.00,,---,0.01,VWS V13.01,2013-02-15 19:16:00,
2013-02-15 14:21:00,67.5,56.2,29.96,ENE,69,0.0,7.0,67,0.00,,---,0.01,VWS V13.01,2013-02-15 19:21:00,
2013-02-15 14:26:00,67.6,56.3,29.96,North,360,0.0,7.0,67,0.00,,---,0.01,VWS V13.01,2013-02-15 19:26:00,
2013-02-15 14:31:00,67.1,57.0,29.95,NNW,347,0.0,7.0,70,0.00,,---,0.01,VWS V13.01,2013-02-15 19:31:00,
2013-02-15 14:36:00,66.7,56.2,29.95,North,5,0.0,9.0,69,0.00,,---,0.01,VWS V13.01,2013-02-15 19:36:00,
2013-02-15 14:41:00,66.8,56.7,29.95,WNW,283,0.0,9.0,70,0.00,,---,0.01,VWS V13.01,2013-02-15 19:41:00,
2013-02-15 14:47:00,66.4,56.3,29.95,NW,309,0.0,9.0,70,0.00,,---,0.01,VWS V13.01,2013-02-15 19:47:00,
2013-02-15 14:52:00,66.2,56.1,29.95,NW,317,0.0,9.0,70,0.00,,---,0.01,VWS V13.01,2013-02-15 19:52:00,
2013-02-15 14:57:00,65.8,56.2,29.95,WSW,257,0.0,9.0,71,0.00,,---,0.01,VWS V13.01,2013-02-15 19:57:00,
2013-02-15 15:02:00,65.0,56.2,29.95,NNW,327,0.0,0.0,73,0.00,,---,0.01,VWS V13.01,2013-02-15 20:02:00,
2013-02-15 15:07:00,64.7,55.5,29.95,NNW,345,0.0,4.0,72,0.00,,---,0.01,VWS V13.01,2013-02-15 20:07:00,
2013-02-15 15:12:00,65.2,56.7,29.95,NNW,329,0.0,4.0,74,0.00,,---,0.01,VWS V13.01,2013-02-15 20:12:00,
2013-02-15 15:17:00,65.3,56.0,29.95,WNW,301,0.0,4.0,72,0.00,,---,0.01,VWS V13.01,2013-02-15 20:17:00,
2013-02-15 15:22:00,65.5,56.6,29.95,NW,316,0.0,4.0,73,0.00,,---,0.01,VWS V13.01,2013-02-15 20:22:00,
2013-02-15 15:27:00,65.0,55.8,29.95,NNW,332,0.0,4.0,72,0.00,,---,0.01,VWS V13.01,2013-02-15 20:27:00,
2013-02-15 15:32:00,65.2,56.3,29.95,WNW,301,0.0,0.0,73,0.00,,---,0.01,VWS V13.01,2013-02-15 20:32:00,
2013-02-15 15:37:00,65.0,55.8,29.95,NW,316,0.0,4.0,72,0.00,,---,0.01,VWS V13.01,2013-02-15 20:37:00,
2013-02-15 15:42:00,64.8,56.0,29.95,NNW,337,0.0,6.0,73,0.00,,---,0.01,VWS V13.01,2013-02-15 20:42:00,
2013-02-15 15:48:00,64.4,55.9,29.95,West,265,0.0,9.0,74,0.00,,---,0.01,VWS V13.01,2013-02-15 20:48:00,
2013-02-15 15:53:00,63.7,55.3,29.95,WNW,288,0.0,9.0,74,0.00,,---,0.01,VWS V13.01,2013-02-15 20:53:00,
2013-02-15 15:58:00,63.3,55.2,29.95,NNW,333,0.0,9.0,75,0.00,,---,0.01,VWS V13.01,2013-02-15 20:58:00,
2013-02-15 16:03:00,63.4,55.3,29.95,NNW,327,0.0,4.0,75,0.00,,---,0.01,VWS V13.01,2013-02-15 21:03:00,
2013-02-15 16:08:00,63.5,55.8,29.95,West,275,5.0,6.0,76,0.00,,---,0.01,VWS V13.01,2013-02-15 21:08:00,
2013-02-15 16:13:00,62.9,55.2,29.95,West,276,0.0,6.0,76,0.00,,---,0.01,VWS V13.01,2013-02-15 21:13:00,
2013-02-15 16:18:00,63.2,55.5,29.95,NNW,336,0.0,6.0,76,0.00,,---,0.01,VWS V13.01,2013-02-15 21:18:00,
2013-02-15 16:23:00,63.4,55.3,29.95,North,360,0.0,11.0,75,0.00,,---,0.01,VWS V13.01,2013-02-15 21:23:00,
2013-02-15 16:28:00,62.9,54.9,29.95,WNW,298,0.0,11.0,75,0.00,,---,0.01,VWS V13.01,2013-02-15 21:28:00,
2013-02-15 16:33:00,62.7,54.7,29.95,NNW,345,0.0,7.0,75,0.00,,---,0.01,VWS V13.01,2013-02-15 21:33:00,
2013-02-15 16:38:00,62.7,54.7,29.94,NNW,336,0.0,7.0,75,0.00,,---,0.01,VWS V13.01,2013-02-15 21:38:00,
2013-02-15 16:43:00,62.6,54.2,29.94,NNW,344,0.0,7.0,74,0.00,,---,0.01,VWS V13.01,2013-02-15 21:43:00,
2013-02-15 16:48:00,62.7,54.7,29.94,NNE,13,0.0,7.0,75,0.00,,---,0.01,VWS V13.01,2013-02-15 21:48:00,
2013-02-15 16:53:00,62.8,54.4,29.94,NNE,28,0.0,7.0,74,0.00,,---,0.01,VWS V13.01,2013-02-15 21:53:00,
2013-02-15 16:58:00,62.6,54.6,29.94,North,11,0.0,7.0,75,0.00,,---,0.01,VWS V13.01,2013-02-15 21:58:00,
2013-02-15 17:03:00,62.5,54.1,29.94,NW,324,0.0,7.0,74,0.00,,---,0.01,VWS V13.01,2013-02-15 22:03:00,
2013-02-15 17:08:00,62.2,53.8,29.94,NNW,331,0.0,7.0,74,0.00,,---,0.01,VWS V13.01,2013-02-15 22:08:00,
2013-02-15 17:13:00,62.0,53.6,29.94,NNW,330,1.0,7.0,74,0.00,,---,0.01,VWS V13.01,2013-02-15 22:13:00,
2013-02-15 17:19:00,62.0,53.6,29.94,North,351,1.0,7.0,74,0.00,,---,0.01,VWS V13.01,2013-02-15 22:19:00,
2013-02-15 17:24:00,61.8,53.4,29.94,NNW,331,0.0,7.0,74,0.00,,---,0.01,VWS V13.01,2013-02-15 22:24:00,
2013-02-15 17:29:00,61.6,52.9,29.94,NNW,346,0.0,7.0,73,0.00,,---,0.01,VWS V13.01,2013-02-15 22:29:00,
2013-02-15 17:34:00,61.5,52.8,29.94,North,11,0.0,4.0,73,0.00,,---,0.01,VWS V13.01,2013-02-15 22:34:00,
2013-02-15 17:39:00,61.3,52.6,29.94,North,11,0.0,4.0,73,0.00,,---,0.01,VWS V13.01,2013-02-15 22:39:00,
2013-02-15 17:44:00,61.2,52.5,29.94,North,355,0.0,4.0,73,0.00,,---,0.01,VWS V13.01,2013-02-15 22:44:00,
2013-02-15 17:49:00,61.1,52.4,29.94,NNW,344,0.0,4.0,73,0.00,,---,0.01,VWS V13.01,2013-02-15 22:49:00,
2013-02-15 17:54:00,60.9,52.2,29.94,NW,310,0.0,4.0,73,0.00,,---,0.01,VWS V13.01,2013-02-15 22:54:00,
2013-02-15 17:59:00,60.8,52.5,29.94,NW,310,0.0,4.0,74,0.00,,---,0.01,VWS V13.01,2013-02-15 22:59:00,
2013-02-15 18:04:00,60.6,52.3,29.94,NW,313,0.0,0.0,74,0.00,,---,0.01,VWS V13.01,2013-02-15 23:04:00,
2013-02-15 18:09:00,60.4,51.7,29.94,NW,315,0.0,0.0,73,0.00,,---,0.01,VWS V13.01,2013-02-15 23:09:00,
2013-02-15 18:14:00,60.2,51.9,29.94,NNW,327,0.0,0.0,74,0.00,,---,0.01,VWS V13.01,2013-02-15 23:14:00,
2013-02-15 18:20:00,60.0,51.7,29.94,NNW,327,0.0,0.0,74,0.00,,---,0.01,VWS V13.01,2013-02-15 23:20:00,
2013-02-15 18:25:00,59.7,51.8,29.94,NNW,329,0.0,0.0,75,0.00,,---,0.01,VWS V13.01,2013-02-15 23:25:00,
2013-02-15 18:30:00,59.4,51.5,29.94,NNW,329,0.0,0.0,75,0.00,,---,0.01,VWS V13.01,2013-02-15 23:30:00,
2013-02-15 18:35:00,59.2,51.7,29.94,NNW,329,0.0,0.0,76,0.00,,---,0.01,VWS V13.01,2013-02-15 23:35:00,
2013-02-15 18:40:00,59.0,51.8,29.94,NNW,329,0.0,0.0,77,0.00,,---,0.01,VWS V13.01,2013-02-15 23:40:00,
2013-02-15 18:45:00,58.7,51.5,29.94,NNW,329,0.0,0.0,77,0.00,,---,0.01,VWS V13.01,2013-02-15 23:45:00,
2013-02-15 18:50:00,58.4,51.6,29.94,NNW,329,0.0,0.0,78,0.00,,---,0.01,VWS V13.01,2013-02-15 23:50:00,
2013-02-15 18:55:00,58.3,51.5,29.94,NNW,329,0.0,0.0,78,0.00,,---,0.01,VWS V13.01,2013-02-15 23:55:00,
2013-02-15 19:00:00,58.2,51.4,29.94,NNW,329,0.0,0.0,78,0.00,,---,0.01,VWS V13.01,2013-02-16 00:00:00,
2013-02-15 19:05:00,58.1,51.6,29.94,NNW,329,0.0,0.0,79,0.00,,---,0.01,VWS V13.01,2013-02-16 00:05:00,
2013-02-15 19:11:00,58.1,51.6,29.94,NNW,329,0.0,0.0,79,0.00,,---,0.01,VWS V13.01,2013-02-16 00:11:00,
2013-02-15 19:16:00,58.0,51.5,29.94,NNW,329,0.0,0.0,79,0.00,,---,0.01,VWS V13.01,2013-02-16 00:16:00,
2013-02-15 19:21:00,58.0,51.5,29.94,NNW,329,0.0,0.0,79,0.00,,---,0.01,VWS V13.01,2013-02-16 00:21:00,
2013-02-15 19:26:00,58.0,51.5,29.94,NNW,329,0.0,0.0,79,0.00,,---,0.01,VWS V13.01,2013-02-16 00:26:00,
2013-02-15 19:31:00,57.9,51.8,29.94,NNW,329,0.0,0.0,80,0.00,,---,0.01,VWS V13.01,2013-02-16 00:31:00,
2013-02-15 19:36:00,57.8,51.3,29.94,NNW,329,0.0,0.0,79,0.00,,---,0.01,VWS V13.01,2013-02-16 00:36:00,
2013-02-15 19:41:00,57.7,51.2,29.94,NNW,329,0.0,0.0,79,0.00,,---,0.01,VWS V13.01,2013-02-16 00:41:00,
2013-02-15 19:46:00,57.7,51.6,29.94,NNW,329,0.0,0.0,80,0.00,,---,0.01,VWS V13.01,2013-02-16 00:46:00,
2013-02-15 19:51:00,57.7,51.6,29.94,NNW,329,0.0,0.0,80,0.00,,---,0.01,VWS V13.01,2013-02-16 00:51:00,
2013-02-15 19:56:00,57.7,51.6,29.94,NNW,329,0.0,0.0,80,0.00,,---,0.01,VWS V13.01,2013-02-16 00:56:00,
2013-02-15 20:01:00,57.8,51.7,29.94,NNW,329,0.0,0.0,80,0.00,,---,0.01,VWS V13.01,2013-02-16 01:01:00,
2013-02-15 20:07:00,57.9,51.8,29.94,NNW,332,0.0,0.0,80,0.00,,---,0.01,VWS V13.01,2013-02-16 01:07:00,
2013-02-15 20:12:00,58.0,51.9,29.94,NNW,333,0.0,0.0,80,0.00,,---,0.01,VWS V13.01,2013-02-16 01:12:00,
2013-02-15 20:17:00,58.2,52.1,29.95,NNW,332,0.0,0.0,80,0.00,,---,0.01,VWS V13.01,2013-02-16 01:17:00,
2013-02-15 20:23:00,58.3,52.2,29.95,NNW,333,0.0,0.0,80,0.00,,---,0.01,VWS V13.01,2013-02-16 01:23:00,
2013-02-15 20:28:00,58.2,52.1,29.95,NNW,333,0.0,0.0,80,0.00,,---,0.01,VWS V13.01,2013-02-16 01:28:00,
2013-02-15 20:33:00,58.2,52.1,29.95,NNW,333,0.0,0.0,80,0.00,,---,0.01,VWS V13.01,2013-02-16 01:33:00,
2013-02-15 20:38:00,58.1,52.0,29.95,NNW,333,0.0,0.0,80,0.00,,---,0.01,VWS V13.01,2013-02-16 01:38:00,
2013-02-15 20:43:00,58.0,51.9,29.95,NNW,333,0.0,0.0,80,0.00,,---,0.01,VWS V13.01,2013-02-16 01:43:00,
2013-02-15 20:48:00,57.9,51.8,29.95,NNW,333,0.0,0.0,80,0.00,,---,0.01,VWS V13.01,2013-02-16 01:48:00,
2013-02-15 20:53:00,57.8,51.7,29.96,NNW,333,0.0,0.0,80,0.00,,---,0.01,VWS V13.01,2013-02-16 01:53:00,
2013-02-15 20:58:00,57.9,51.8,29.96,NNW,333,0.0,0.0,80,0.00,,---,0.01,VWS V13.01,2013-02-16 01:58:00,
2013-02-15 21:03:00,57.9,51.8,29.96,NNW,333,0.0,0.0,80,0.00,,---,0.01,VWS V13.01,2013-02-16 02:03:00,
2013-02-15 21:08:00,58.0,51.9,29.96,NNW,333,0.0,0.0,80,0.00,,---,0.01,VWS V13.01,2013-02-16 02:08:00,
2013-02-15 21:13:00,58.1,52.0,29.96,NNW,333,0.0,0.0,80,0.00,,---,0.01,VWS V13.01,2013-02-16 02:13:00,
2013-02-15 21:18:00,58.3,52.5,29.96,NNW,333,0.0,0.0,81,0.00,,---,0.01,VWS V13.01,2013-02-16 02:18:00,
2013-02-15 21:24:00,58.5,52.4,29.96,NNW,333,0.0,0.0,80,0.00,,---,0.01,VWS V13.01,2013-02-16 02:24:00,
2013-02-15 21:29:00,58.6,52.5,29.96,NNW,333,0.0,0.0,80,0.00,,---,0.01,VWS V13.01,2013-02-16 02:29:00,
2013-02-15 21:34:00,58.8,52.7,29.96,NNW,333,0.0,0.0,80,0.00,,---,0.01,VWS V13.01,2013-02-16 02:34:00,
2013-02-15 21:39:00,58.9,52.8,29.97,NNW,333,0.0,0.0,80,0.00,,---,0.01,VWS V13.01,2013-02-16 02:39:00,
2013-02-15 21:44:00,58.9,52.4,29.97,NNW,333,0.0,0.0,79,0.00,,---,0.01,VWS V13.01,2013-02-16 02:44:00,
2013-02-15 21:49:00,59.0,52.5,29.97,NNW,334,0.0,0.0,79,0.00,,---,0.01,VWS V13.01,2013-02-16 02:49:00,
2013-02-15 21:54:00,59.0,52.2,29.97,NNW,334,0.0,0.0,78,0.00,,---,0.01,VWS V13.01,2013-02-16 02:54:00,
2013-02-15 21:59:00,59.0,52.2,29.97,NNW,334,0.0,0.0,78,0.00,,---,0.01,VWS V13.01,2013-02-16 02:59:00,
2013-02-15 22:04:00,59.0,52.5,29.97,NNW,334,0.0,0.0,79,0.00,,---,0.01,VWS V13.01,2013-02-16 03:04:00,
2013-02-15 22:09:00,59.0,52.5,29.97,NNW,334,0.0,0.0,79,0.00,,---,0.01,VWS V13.01,2013-02-16 03:09:00,
2013-02-15 22:14:00,59.0,52.2,29.96,NNW,338,0.0,0.0,78,0.00,,---,0.01,VWS V13.01,2013-02-16 03:14:00,
2013-02-15 22:19:00,59.1,52.3,29.96,NNW,338,0.0,0.0,78,0.00,,---,0.01,VWS V13.01,2013-02-16 03:19:00,
2013-02-15 22:24:00,59.1,52.6,29.96,NNW,338,0.0,0.0,79,0.00,,---,0.01,VWS V13.01,2013-02-16 03:24:00,
2013-02-15 22:29:00,59.1,52.6,29.96,NNW,338,0.0,0.0,79,0.00,,---,0.01,VWS V13.01,2013-02-16 03:29:00,
2013-02-15 22:34:00,59.0,52.5,29.96,NNW,338,0.0,0.0,79,0.00,,---,0.01,VWS V13.01,2013-02-16 03:34:00,
2013-02-15 22:39:00,58.9,52.8,29.96,NNW,338,0.0,0.0,80,0.00,,---,0.01,VWS V13.01,2013-02-16 03:39:00,
2013-02-15 22:45:00,58.6,52.5,29.97,NNW,338,0.0,0.0,80,0.00,,---,0.01,VWS V13.01,2013-02-16 03:45:00,
2013-02-15 22:50:00,58.5,52.4,29.96,NNW,338,0.0,0.0,80,0.00,,---,0.01,VWS V13.01,2013-02-16 03:50:00,
2013-02-15 22:55:00,58.3,52.5,29.97,NNW,338,0.0,0.0,81,0.00,,---,0.01,VWS V13.01,2013-02-16 03:55:00,
2013-02-15 23:00:00,58.1,52.3,29.96,NNW,338,0.0,0.0,81,0.00,,---,0.01,VWS V13.01,2013-02-16 04:00:00,
2013-02-15 23:05:00,57.8,52.3,29.96,NNW,338,0.0,0.0,82,0.00,,---,0.01,VWS V13.01,2013-02-16 04:05:00,
2013-02-15 23:10:00,57.6,52.2,29.96,NNW,338,0.0,0.0,82,0.00,,---,0.01,VWS V13.01,2013-02-16 04:10:00,
2013-02-15 23:15:00,57.4,52.0,29.96,NNW,338,0.0,0.0,82,0.00,,---,0.01,VWS V13.01,2013-02-16 04:15:00,
2013-02-15 23:20:00,57.1,52.0,29.96,NNW,338,0.0,0.0,83,0.00,,---,0.01,VWS V13.01,2013-02-16 04:20:00,
2013-02-15 23:25:00,56.9,51.8,29.97,NNW,338,0.0,0.0,83,0.00,,---,0.01,VWS V13.01,2013-02-16 04:25:00,
2013-02-15 23:31:00,56.7,51.6,29.96,NNW,338,0.0,0.0,83,0.00,,---,0.01,VWS V13.01,2013-02-16 04:31:00,
2013-02-15 23:36:00,56.6,51.5,29.96,NNW,338,0.0,0.0,83,0.00,,---,0.01,VWS V13.01,2013-02-16 04:36:00,
2013-02-15 23:41:00,56.4,51.3,29.96,NNW,338,0.0,0.0,83,0.00,,---,0.01,VWS V13.01,2013-02-16 04:41:00,
2013-02-15 23:46:00,56.4,51.6,29.96,NNW,338,0.0,0.0,84,0.00,,---,0.01,VWS V13.01,2013-02-16 04:46:00,
2013-02-15 23:51:00,56.3,51.5,29.96,NNW,338,0.0,0.0,84,0.00,,---,0.01,VWS V13.01,2013-02-16 04:51:00,
2013-02-15 23:56:00,56.2,51.4,29.96,NNW,338,0.0,0.0,84,0.00,,---,0.01,VWS V13.01,2013-02-16 04:56:00,